• In Hungary
  • List of Countries
  • For 7 days
  • Water Temperature
  • Satellite Maps
  • Weather Map
  • News
  • Weather Widgets
  • user-avatar
    Login

    Hourly Weather Lipeck

    Today, 24 September, Monday

    Time Temperature Precipitation Wind Pressure Humidity
    00:00 +9°C° 0 mm 3 mps 749 mmHg 87%
    01:00 +9°C° 0 mm 3 mps 749 mmHg 88%
    02:00 +8°C° 0 mm 3 mps 749 mmHg 89%
    03:00 +8°C° 0 mm 3 mps 749 mmHg 92%
    04:00 +8°C° 0 mm 3 mps 749 mmHg 92%
    05:00 +7°C° 0 mm 2 mps 749 mmHg 93%
    06:00 +7°C° 0 mm 2 mps 749 mmHg 93%
    07:00 +8°C° 0 mm 2 mps 749 mmHg 88%
    08:00 +10°C° 0 mm 3 mps 749 mmHg 82%
    09:00 +12°C° 0 mm 2 mps 749 mmHg 75%
    10:00 +12°C° 0 mm 3 mps 749 mmHg 67%
    11:00 +14°C° 0 mm 4 mps 749 mmHg 60%
    12:00 +15°C° 0 mm 4 mps 749 mmHg 53%
    13:00 +15°C° 0 mm 5 mps 748 mmHg 52%
    14:00 +15°C° 0 mm 5 mps 747 mmHg 51%
    15:00 +15°C° 0 mm 5 mps 746 mmHg 50%
    16:00 +15°C° 0.1 mm 5 mps 746 mmHg 53%
    17:00 +14°C° 0.1 mm 4 mps 745 mmHg 56%
    18:00 +14°C° 0.1 mm 4 mps 745 mmHg 59%
    19:00 +14°C° 0.8 mm 5 mps 744 mmHg 62%
    20:00 +14°C° 0.8 mm 5 mps 743 mmHg 65%
    21:00 +13°C° 0.8 mm 6 mps 743 mmHg 69%
    22:00 +13°C° 1.8 mm 6 mps 742 mmHg 74%
    23:00 +12°C° 1.8 mm 7 mps 742 mmHg 78%

    Tomorrow, 25 September, Tuesday

    Time Temperature Precipitation Wind Pressure Humidity
    00:00 +11°C° 1.8 mm 7 mps 741 mmHg 83%
    01:00 +11°C° 0.6 mm 7 mps 741 mmHg 84%
    02:00 +11°C° 0.6 mm 6 mps 741 mmHg 84%
    03:00 +10°C° 0.6 mm 5 mps 741 mmHg 85%
    04:00 +10°C° 0.3 mm 5 mps 741 mmHg 84%
    05:00 +9°C° 0.3 mm 5 mps 741 mmHg 84%
    06:00 +8°C° 0.3 mm 5 mps 741 mmHg 84%
    07:00 +8°C° 0.1 mm 6 mps 742 mmHg 81%
    08:00 +9°C° 0.1 mm 6 mps 742 mmHg 78%
    09:00 +9°C° 0.1 mm 6 mps 743 mmHg 76%
    10:00 +9°C° 0 mm 6 mps 743 mmHg 73%
    11:00 +9°C° 0 mm 6 mps 744 mmHg 71%
    12:00 +10°C° 0 mm 6 mps 744 mmHg 69%
    13:00 +10°C° 0.1 mm 6 mps 745 mmHg 68%
    14:00 +10°C° 0.1 mm 6 mps 745 mmHg 67%
    15:00 +10°C° 0.1 mm 6 mps 745 mmHg 66%
    16:00 +10°C° 0.1 mm 6 mps 746 mmHg 68%
    17:00 +9°C° 0.1 mm 5 mps 746 mmHg 70%
    18:00 +9°C° 0.1 mm 5 mps 747 mmHg 71%
    19:00 +8°C° 0 mm 5 mps 748 mmHg 73%
    20:00 +7°C° 0 mm 5 mps 748 mmHg 75%
    21:00 +7°C° 0 mm 4 mps 749 mmHg 77%
    22:00 +6°C° 0 mm 4 mps 749 mmHg 78%
    23:00 +6°C° 0 mm 4 mps 750 mmHg 79%

    Day after tomorrow, 26 September, Wednesday

    Time Temperature Precipitation Wind Pressure Humidity
    00:00 +6°C° 0 mm 4 mps 750 mmHg 80%
    01:00 +5°C° 0 mm 4 mps 751 mmHg 81%
    02:00 +5°C° 0 mm 4 mps 751 mmHg 83%
    03:00 +5°C° 0 mm 4 mps 752 mmHg 84%
    04:00 +5°C° 0 mm 4 mps 752 mmHg 85%
    05:00 +4°C° 0 mm 4 mps 753 mmHg 86%
    06:00 +4°C° 0 mm 4 mps 753 mmHg 87%
    07:00 +5°C° 0 mm 4 mps 754 mmHg 82%
    08:00 +6°C° 0 mm 4 mps 754 mmHg 76%
    09:00 +7°C° 0 mm 5 mps 755 mmHg 71%
    10:00 +8°C° 0 mm 5 mps 755 mmHg 66%
    11:00 +8°C° 0 mm 5 mps 755 mmHg 60%
    12:00 +9°C° 0 mm 5 mps 756 mmHg 55%
    13:00 +10°C° 0 mm 5 mps 756 mmHg 52%
    14:00 +10°C° 0 mm 5 mps 756 mmHg 50%
    15:00 +10°C° 0 mm 5 mps 756 mmHg 48%
    16:00 +10°C° 0 mm 4 mps 756 mmHg 51%
    17:00 +9°C° 0 mm 3 mps 756 mmHg 54%
    18:00 +8°C° 0 mm 2 mps 756 mmHg 57%
    19:00 +8°C° 0 mm 3 mps 757 mmHg 59%
    20:00 +7°C° 0 mm 3 mps 757 mmHg 62%
    21:00 +5°C° 0 mm 3 mps 757 mmHg 64%
    22:00 +5°C° 0 mm 3 mps 757 mmHg 64%
    23:00 +5°C° 0 mm 3 mps 757 mmHg 65%

    27 September, Thursday

    Time Temperature Precipitation Wind Pressure Humidity
    00:00 +4°C° 0 mm 4 mps 756 mmHg 65%
    01:00 +5°C° 0 mm 4 mps 756 mmHg 65%
    02:00 +5°C° 0 mm 5 mps 755 mmHg 64%
    03:00 +5°C° 0 mm 5 mps 755 mmHg 63%
    04:00 +4°C° 0 mm 6 mps 754 mmHg 63%
    05:00 +4°C° 0 mm 6 mps 754 mmHg 63%
    06:00 +5°C° 0 mm 7 mps 753 mmHg 62%
    07:00 +5°C° 0.3 mm 7 mps 752 mmHg 64%
    08:00 +5°C° 0.3 mm 8 mps 752 mmHg 65%
    09:00 +5°C° 0.3 mm 9 mps 751 mmHg 66%
    10:00 +5°C° 0.4 mm 9 mps 751 mmHg 69%
    11:00 +6°C° 0.4 mm 9 mps 750 mmHg 71%
    12:00 +6°C° 0.4 mm 9 mps 750 mmHg 73%
    13:00 +6°C° 0.2 mm 9 mps 750 mmHg 74%
    14:00 +6°C° 0.2 mm 9 mps 749 mmHg 76%
    15:00 +7°C° 0.2 mm 8 mps 749 mmHg 77%
    16:00 +7°C° 0.1 mm 8 mps 749 mmHg 79%
    17:00 +8°C° 0.1 mm 7 mps 749 mmHg 80%
    18:00 +8°C° 0.1 mm 7 mps 748 mmHg 81%
    19:00 +8°C° 0.1 mm 7 mps 748 mmHg 82%
    20:00 +8°C° 0.1 mm 7 mps 748 mmHg 83%
    21:00 +9°C° 0.1 mm 7 mps 748 mmHg 83%
    22:00 +9°C° 0.3 mm 7 mps 748 mmHg 84%
    23:00 +9°C° 0.3 mm 6 mps 748 mmHg 85%

    28 September, Friday

    Time Temperature Precipitation Wind Pressure Humidity
    00:00 +9°C° 0.3 mm 6 mps 748 mmHg 86%
    01:00 +9°C° 0 mm 6 mps 747 mmHg 87%
    02:00 +10°C° 0 mm 5 mps 747 mmHg 89%
    03:00 +10°C° 0 mm 5 mps 747 mmHg 90%
    04:00 +10°C° 0.2 mm 5 mps 747 mmHg 90%
    05:00 +10°C° 0.2 mm 5 mps 747 mmHg 91%
    06:00 +12°C° 0.2 mm 4 mps 747 mmHg 92%
    07:00 +12°C° 0.1 mm 5 mps 747 mmHg 89%
    08:00 +13°C° 0.1 mm 6 mps 747 mmHg 87%
    09:00 +14°C° 0.1 mm 6 mps 747 mmHg 85%
    10:00 +14°C° 0 mm 7 mps 747 mmHg 81%
    11:00 +14°C° 0 mm 7 mps 747 mmHg 78%
    12:00 +15°C° 0 mm 8 mps 746 mmHg 75%
    13:00 +15°C° 0 mm 8 mps 746 mmHg 73%
    14:00 +15°C° 0 mm 8 mps 746 mmHg 72%
    15:00 +16°C° 0 mm 8 mps 746 mmHg 71%
    16:00 +15°C° 0 mm 8 mps 746 mmHg 73%
    17:00 +15°C° 0 mm 7 mps 746 mmHg 75%
    18:00 +14°C° 0 mm 7 mps 746 mmHg 77%
    19:00 +14°C° 0.1 mm 7 mps 746 mmHg 78%
    20:00 +13°C° 0.1 mm 6 mps 746 mmHg 80%
    21:00 +13°C° 0.1 mm 6 mps 747 mmHg 81%
    22:00 +13°C° 0.2 mm 5 mps 747 mmHg 83%
    23:00 +12°C° 0.2 mm 4 mps 747 mmHg 84%

    29 September, Saturday

    Time Temperature Precipitation Wind Pressure Humidity
    00:00 +12°C° 0.2 mm 3 mps 747 mmHg 86%
    01:00 +11°C° 0 mm 3 mps 748 mmHg 86%
    02:00 +12°C° 0 mm 2 mps 748 mmHg 86%
    03:00 +10°C° 0 mm 2 mps 749 mmHg 87%
    04:00 +10°C° 0 mm 2 mps 749 mmHg 88%
    05:00 +9°C° 0 mm 2 mps 749 mmHg 89%
    06:00 +8°C° 0 mm 2 mps 749 mmHg 91%
    07:00 +9°C° 0 mm 2 mps 750 mmHg 86%
    08:00 +10°C° 0 mm 2 mps 750 mmHg 82%
    09:00 +10°C° 0 mm 3 mps 750 mmHg 78%
    10:00 +12°C° 0 mm 2 mps 750 mmHg 74%
    11:00 +13°C° 0 mm 2 mps 750 mmHg 71%
    12:00 +14°C° 0 mm 2 mps 750 mmHg 67%
    13:00 +14°C° 0 mm 2 mps 750 mmHg 68%
    14:00 +14°C° 0 mm 2 mps 750 mmHg 70%
    15:00 +14°C° 0 mm 2 mps 749 mmHg 71%
    16:00 +14°C° 0.1 mm 1 mps 749 mmHg 74%
    17:00 +14°C° 0.1 mm 1 mps 749 mmHg 77%
    18:00 +13°C° 0.1 mm 1 mps 749 mmHg 80%
    19:00 +13°C° 0.4 mm 1 mps 749 mmHg 83%
    20:00 +12°C° 0.4 mm 1 mps 750 mmHg 85%
    21:00 +12°C° 0.4 mm 2 mps 750 mmHg 88%
    22:00 +12°C° 0.2 mm 2 mps 750 mmHg 89%
    23:00 +10°C° 0.2 mm 2 mps 750 mmHg 90%
    Show more